Location: Unspecified
(0.0000°N, 0.0000°E)
Time: 16:19:33
(UTC+00:00)

SR - Pass Details

Date: 26 November 2019
Orbit: 573 x 882 km, 66.7° (Epoch: 12 December)

Event Time Altitude Azimuth Distance (km) Brightness Sun altitude
Rises 21:57:27 0° 18° (NNE) 3,352 - -55.9°
Reaches altitude 10° 22:02:29 10° 57° (ENE) 2,339 - -56.9°
Maximum altitude 22:03:24 10° 67° (ENE) 2,294 - -57.0°
Drops below altitude 10° 22:04:19 10° 77° (ENE) 2,306 - -57.2°
Sets 22:09:01 0° 117° (ESE) 3,136 - -58.1°
